ACA875 LFPG-CYUL

Flight info

Callsign ACA875
Flight time N/A
Altitude 30000
Route ATREX DCT VESAN DCT RATUK DCT SOVAT/N0477F340 L613 SANDY DCT OKSAW DCT TEWXI DCT LIPGO DCT REVNU/N0481F360 DCT NETKI DCT RESNO/M083F360 NATB ELSIR/N0481F380 N412A MIILS DCT ODBOS OMBRE2
Aircraft B77W/H-SDE1E2E3FGHIJ2J3J4J5M1RWXY/LB1D1

Departure

Time 2026-05-08 10:29
Airport Charles de Gaulle International Airport (LFPG)

Arrival

Time N/A
Airport Montreal / Pierre Elliott Trudeau International Airport (CYUL)
Time Latitude Longitude Altitude Speed Heading
2026-05-08 10:15 49.01549 2.51180 355 ft 0 kts 356°
2026-05-08 10:23 49.01547 2.51180 355 ft 2 kts 356°
2026-05-08 10:23 49.01521 2.51183 358 ft 4 kts 356°
2026-05-08 10:24 49.01498 2.51186 361 ft 4 kts 348°
2026-05-08 10:24 49.01478 2.51196 363 ft 4 kts 314°
2026-05-08 10:24 49.01470 2.51216 364 ft 4 kts 270°
2026-05-08 10:24 49.01473 2.51255 359 ft 4 kts 263°
2026-05-08 10:25 49.01474 2.51270 363 ft 0 kts 266°
2026-05-08 10:25 49.01474 2.51268 363 ft 0 kts 266°
2026-05-08 10:25 49.01474 2.51267 363 ft 0 kts 266°
2026-05-08 10:26 49.01489 2.51238 363 ft 10 kts 320°
2026-05-08 10:26 49.01564 2.51241 360 ft 13 kts 17°
2026-05-08 10:26 49.01660 2.51281 360 ft 17 kts 13°
2026-05-08 10:26 49.01772 2.51282 364 ft 16 kts 352°
2026-05-08 10:27 49.01883 2.51259 366 ft 16 kts 356°
2026-05-08 10:27 49.01991 2.51298 363 ft 16 kts 20°
2026-05-08 10:27 49.02071 2.51408 366 ft 16 kts 71°
2026-05-08 10:27 49.02072 2.51426 364 ft 0 kts 86°
2026-05-08 10:28 49.02077 2.51536 365 ft 48 kts 86°
2026-05-08 10:28 49.02136 2.52613 361 ft 154 kts 85°
2026-05-08 10:29 49.02241 2.54593 811 ft 190 kts 85°
2026-05-08 10:29 49.02360 2.56599 1659 ft 203 kts 82°
2026-05-08 10:29 49.02572 2.58746 2974 ft 209 kts 82°
2026-05-08 10:29 49.02703 2.61060 3422 ft 233 kts 86°
2026-05-08 10:30 49.02796 2.63649 3923 ft 252 kts 86°
2026-05-08 10:30 49.02906 2.66348 4810 ft 258 kts 86°
2026-05-08 10:30 49.03029 2.69123 5658 ft 265 kts 85°
2026-05-08 10:30 49.03172 2.71946 6526 ft 268 kts 83°
2026-05-08 10:31 49.03799 2.74634 7152 ft 277 kts 52°
2026-05-08 10:31 49.05294 2.76463 7981 ft 278 kts 22°
2026-05-08 10:31 49.07188 2.77011 8816 ft 281 kts 355°
2026-05-08 10:31 49.09102 2.76391 9629 ft 283 kts 340°
2026-05-08 10:32 49.10960 2.75390 10349 ft 290 kts 339°
2026-05-08 10:32 49.12911 2.74275 10713 ft 312 kts 338°
2026-05-08 10:32 49.15027 2.73048 10928 ft 339 kts 338°
2026-05-08 10:32 49.17348 2.71706 11189 ft 363 kts 338°
2026-05-08 10:33 49.19752 2.70326 11843 ft 375 kts 338°
2026-05-08 10:33 49.22188 2.68939 12648 ft 382 kts 339°
2026-05-08 10:33 49.24696 2.67517 13545 ft 387 kts 339°
2026-05-08 10:33 49.27238 2.66081 14378 ft 392 kts 338°
2026-05-08 10:34 49.29808 2.64625 15192 ft 396 kts 338°
2026-05-08 10:34 49.32410 2.63124 16014 ft 401 kts 338°
2026-05-08 10:34 49.35036 2.61607 16816 ft 405 kts 338°
2026-05-08 10:34 49.37699 2.60080 17621 ft 410 kts 338°
2026-05-08 10:35 49.40393 2.58547 18398 ft 415 kts 338°
2026-05-08 10:35 49.43123 2.57000 19084 ft 420 kts 338°
2026-05-08 10:35 49.45876 2.55445 19800 ft 423 kts 338°
2026-05-08 10:35 49.48652 2.53877 20497 ft 427 kts 338°
2026-05-08 10:36 49.51454 2.52294 21177 ft 431 kts 338°
2026-05-08 10:36 49.54286 2.50692 21838 ft 435 kts 338°
2026-05-08 10:36 49.57147 2.49071 22503 ft 439 kts 338°
2026-05-08 10:36 49.59989 2.47457 23138 ft 443 kts 338°
2026-05-08 10:37 49.62892 2.45807 23756 ft 447 kts 338°
2026-05-08 10:37 49.65828 2.44137 24289 ft 451 kts 338°
2026-05-08 10:37 49.68784 2.42453 24821 ft 454 kts 338°
2026-05-08 10:37 49.71757 2.40756 25353 ft 457 kts 338°
2026-05-08 10:38 49.74747 2.39048 25857 ft 460 kts 338°
2026-05-08 10:38 49.77762 2.37324 26361 ft 463 kts 338°
2026-05-08 10:38 49.80797 2.35583 26830 ft 467 kts 338°
2026-05-08 10:38 49.83854 2.33818 27303 ft 470 kts 338°
2026-05-08 10:39 49.86927 2.32038 27770 ft 473 kts 338°
2026-05-08 10:39 49.90017 2.30246 28220 ft 476 kts 338°
2026-05-08 10:39 49.93096 2.28459 28641 ft 479 kts 338°
2026-05-08 10:39 49.96225 2.26640 29046 ft 482 kts 338°
2026-05-08 10:40 49.99372 2.24808 29430 ft 484 kts 338°
2026-05-08 10:40 50.02544 2.22961 29824 ft 486 kts 338°
2026-05-08 10:40 50.05722 2.21107 30055 ft 490 kts 338°
2026-05-08 10:41 50.12104 2.17377 30065 ft 486 kts 338°
2026-05-08 10:41 50.18426 2.13672 30078 ft 484 kts 338°
2026-05-08 10:42 50.24735 2.09961 30080 ft 484 kts 338°
2026-05-08 10:42 50.31047 2.06241 30085 ft 485 kts 338°
2026-05-08 10:43 50.37096 2.01788 30088 ft 483 kts 327°
2026-05-08 10:43 50.42379 1.95386 30103 ft 480 kts 312°
2026-05-08 10:44 50.46410 1.87105 30102 ft 476 kts 299°
2026-05-08 10:44 50.49728 1.78097 30108 ft 477 kts 298°
2026-05-08 10:45 50.53012 1.69034 30109 ft 477 kts 298°
2026-05-08 10:45 50.56331 1.59980 30107 ft 477 kts 298°
2026-05-08 10:46 50.59642 1.51006 30098 ft 477 kts 298°
2026-05-08 10:46 50.62974 1.41963 30103 ft 477 kts 298°
2026-05-08 10:47 50.66294 1.32921 30097 ft 476 kts 298°
2026-05-08 10:47 50.69606 1.23862 30105 ft 476 kts 298°
2026-05-08 10:48 50.72917 1.14774 30104 ft 476 kts 298°
2026-05-08 10:48 50.76192 1.05752 30106 ft 476 kts 298°
2026-05-08 10:49 50.79483 0.96652 30105 ft 477 kts 298°
2026-05-08 10:49 50.82769 0.87534 30106 ft 477 kts 298°
2026-05-08 10:50 50.86047 0.78409 30108 ft 477 kts 298°
2026-05-08 10:50 50.89321 0.69259 30105 ft 477 kts 298°
2026-05-08 10:51 50.92566 0.60157 30100 ft 477 kts 298°
2026-05-08 10:51 50.95296 0.52477 30038 ft 477 kts 298°
2026-05-08 10:52 50.98526 0.43359 30023 ft 477 kts 298°
2026-05-08 10:52 51.01774 0.34155 30006 ft 477 kts 298°
2026-05-08 10:53 51.05012 0.24947 30006 ft 477 kts 298°
2026-05-08 10:53 51.08239 0.15735 30017 ft 477 kts 298°
2026-05-08 10:54 51.11467 0.06492 30101 ft 477 kts 298°
2026-05-08 10:54 51.14688 -0.02766 30111 ft 478 kts 298°
2026-05-08 10:55 51.17901 -0.12037 30100 ft 478 kts 298°
2026-05-08 10:55 51.21112 -0.21340 30105 ft 479 kts 298°
2026-05-08 10:56 51.24298 -0.30599 30104 ft 479 kts 298°
2026-05-08 10:56 51.27475 -0.39870 30098 ft 480 kts 298°
2026-05-08 10:57 51.30681 -0.49257 30101 ft 481 kts 298°
2026-05-08 10:57 51.35477 -0.63368 30079 ft 482 kts 298°
2026-05-08 10:58 51.38671 -0.72809 30074 ft 482 kts 298°
2026-05-08 10:58 51.41858 -0.82265 30098 ft 483 kts 298°
2026-05-08 10:59 51.45026 -0.91698 30099 ft 484 kts 297°
2026-05-08 10:59 51.48219 -1.01244 30078 ft 486 kts 297°
2026-05-08 11:00 51.51411 -1.10825 30076 ft 487 kts 297°
2026-05-08 11:00 51.54599 -1.20432 30080 ft 487 kts 297°
2026-05-08 11:01 51.57771 -1.30025 30079 ft 488 kts 297°
2026-05-08 11:01 51.60954 -1.39688 30072 ft 489 kts 297°
2026-05-08 11:02 51.65722 -1.54239 30080 ft 490 kts 297°
2026-05-08 11:03 51.68899 -1.63976 30075 ft 491 kts 297°
2026-05-08 11:03 51.72019 -1.73687 30070 ft 492 kts 296°
2026-05-08 11:04 51.75043 -1.83512 30068 ft 493 kts 296°
2026-05-08 11:04 51.78097 -1.93457 30053 ft 493 kts 296°
2026-05-08 11:05 51.81174 -2.03359 30055 ft 493 kts 298°
2026-05-08 11:05 51.84734 -2.12822 30049 ft 492 kts 302°
2026-05-08 11:06 51.88391 -2.22186 30053 ft 492 kts 302°
2026-05-08 11:06 51.92029 -2.31586 30046 ft 492 kts 302°